User: anonymous   Login
Location: Berbisdorf
(50.7638°N, 12.9442°E)
Time: 16:23:53
(UTC+00:00)
Language:

STARLINK-60 - Orbit

View from above orbital plane
View from above orbital plane
View from above satellite
View from above satellite

Ground track
Ground track

The orbit data is extracted from the following two-line orbital elements,

1 44273U 19029AQ  20225.16355592  .00046419  00000-0  50440-3 0  9998
2 44273  52.9935 190.1391 0002016 270.2084  89.8698 15.63028885 69291
Epoch (UTC): 12 August 2020 03:55:31
Eccentricity: 0.0002016
inclination: 52.9935°
perigee height: 377 km
apogee height: 380 km
right ascension of ascending node: 190.1391°
argument of perigee: 270.2084°
revolutions per day: 15.63028885
mean anomaly at epoch: 89.8698°
orbit number at epoch: 6929

The dashed part of the orbit path shows where the satellite is in the earth's shadow,  

DLR